Weather in Varaksino

Russia / Udmurt Republic     56°51′57″N   53°05′15″E
temp.,
°C
wind,
m/s
gust,
m/s
humid.,
%
clouds,
%
prec.,
mm/h
press.,
hPa
HPBL,
m
13 april, tue
tue1301:00+4e2294100 0.0 103932
04:00+4ese229691 0.0 103919
07:00+4ese359884 0.0 1039182
10:00+9se357897 0.0 1038355
13:00+13sse456346 0.0 1036590
16:00+14s457076 0.0 1035640
19:00+11sse348891 0.0 103465
22:00+9s349356 0.0 103380
14 april, wed
wed1401:00+8ssw349374 0.0 103245
04:00+7sw229259 0.0 103220
07:00+8ssw249161 0.0 103293
10:00+14ssw346543 0.0 1031400
13:00+17ssw34495 0.0 1030941
16:00+18ssw454566 0.0 10281038
19:00+14s33655 0.0 102731
22:00+11s22825 0.0 102630
15 april, thu
thu1501:00+9s228832 0.0 102530
04:00+8s33875 0.0 102536
07:00+9s26845 0.0 1023149
10:00+14ssw46650 0.0 1022567
13:00+17sw57522 0.0 10211393
16:00+18sw56445 0.0 10191689
19:00+14sw34614 0.0 101857
22:00+11wsw347280 0.0 101849
16 april, fri
fri1601:00+10wnw238296 0.0 101839
04:00+8nne5986100 0.0 1020463
07:00+6ne51081100 0.0 1022531
10:00+8ne676096 0.0 1023842
13:00+10ne67385 0.0 10231238
16:00+11ne56340 0.0 10241444
19:00+8ne47455 0.0 1025236
22:00+5ne375818 0.0 1026151
17 april, sat
sat1701:00+3nne34635 0.0 102760
04:00+1n22679 0.0 102729
07:00+2n24657 0.0 1028138
10:00+7n34430 0.0 10271113
13:00+9n35335 0.0 10261844
16:00+10nnw463580 0.0 10252034
19:00+7nw36515 0.0 1024152
22:00+4wnw386770 0.0 1023162